contact:dominique.lefevre@mio.osupytheas.fr, maurice.libes@osupytheas.fr, didier.mallarino@osupytheas.fr
Project:EMSO http://www.emso-fr.org/EMSO-France
Depth: 2436.0 m
Title:EMSO Ligure Ouest : Data MII capteur CSTAR
DateTime,Latitude,Longitude,Instrument_Serial,Reference_Counts,Signal_Counts,Corrected_Signal_raw_counts,Calculated_Beam_c_inverse_meters,Internal_thermistor_counts
DateTime,Latitude,Longitude,Instrument_Serial,Reference_Counts,Signal_Counts,Corrected_Signal_raw_counts,Calculated_Beam_c_inverse_meters,Internal_thermistor_counts
2019-12-22T00:00:02,42.805,6.029,CST-1368DR,7113,9970,15281,0.087,551
2019-12-22T00:03:04,42.805,6.029,CST-1368DR,7113,9970,15282,0.086,551
2019-12-22T00:06:05,42.805,6.029,CST-1368DR,7113,9970,15281,0.087,551
2019-12-22T00:09:07,42.805,6.029,CST-1368DR,7113,9970,15282,0.086,551
2019-12-22T00:12:08,42.805,6.029,CST-1368DR,7113,9970,15282,0.086,551
2019-12-22T00:15:10,42.805,6.029,CST-1368DR,7113,9969,15279,0.087,551
2019-12-22T00:18:12,42.805,6.029,CST-1368DR,7113,9970,15281,0.087,551
2019-12-22T00:21:13,42.805,6.029,CST-1368DR,7113,9970,15281,0.087,551
2019-12-22T00:24:15,42.805,6.029,CST-1368DR,7113,9970,15281,0.087,551
2019-12-22T00:27:17,42.805,6.029,CST-1368DR,7113,9970,15282,0.086,551
2019-12-22T00:30:18,42.805,6.029,CST-1368DR,7113,9970,15282,0.086,551
2019-12-22T00:33:20,42.805,6.029,CST-1368DR,7112,9970,15283,0.086,551
2019-12-22T00:36:22,42.805,6.029,CST-1368DR,7113,9970,15281,0.087,551
2019-12-22T00:39:23,42.805,6.029,CST-1368DR,7113,9970,15282,0.086,551
2019-12-22T00:42:25,42.805,6.029,CST-1368DR,7113,9968,15278,0.088,551
2019-12-22T00:45:26,42.805,6.029,CST-1368DR,7113,9971,15282,0.086,551
2019-12-22T00:48:28,42.805,6.029,CST-1368DR,7113,9969,15280,0.087,551
2019-12-22T00:51:30,42.805,6.029,CST-1368DR,7112,9970,15283,0.086,551
2019-12-22T00:54:31,42.805,6.029,CST-1368DR,7113,9971,15282,0.086,551
2019-12-22T00:57:33,42.805,6.029,CST-1368DR,7113,9971,15283,0.086,551
2019-12-22T01:00:35,42.805,6.029,CST-1368DR,7113,9971,15282,0.086,551
2019-12-22T01:03:36,42.805,6.029,CST-1368DR,7112,9967,15279,0.087,551
2019-12-22T01:06:38,42.805,6.029,CST-1368DR,7112,9971,15284,0.086,551
2019-12-22T01:09:39,42.805,6.029,CST-1368DR,7113,9970,15281,0.087,551
2019-12-22T01:12:41,42.805,6.029,CST-1368DR,7113,9970,15282,0.086,551
2019-12-22T01:15:43,42.805,6.029,CST-1368DR,7112,9970,15283,0.086,551
2019-12-22T01:18:44,42.805,6.029,CST-1368DR,7112,9970,15283,0.086,550
2019-12-22T01:21:46,42.805,6.029,CST-1368DR,7112,9970,15283,0.086,551
2019-12-22T01:24:48,42.805,6.029,CST-1368DR,7112,9970,15284,0.086,551
2019-12-22T01:27:49,42.805,6.029,CST-1368DR,7112,9970,15284,0.086,551
2019-12-22T01:30:51,42.805,6.029,CST-1368DR,7112,9970,15283,0.086,551
2019-12-22T01:33:52,42.805,6.029,CST-1368DR,7112,9970,15284,0.086,551
2019-12-22T01:36:54,42.805,6.029,CST-1368DR,7112,9970,15284,0.086,551
2019-12-22T01:39:56,42.805,6.029,CST-1368DR,7112,9971,15285,0.086,551
2019-12-22T01:42:57,42.805,6.029,CST-1368DR,7112,9970,15284,0.086,551
2019-12-22T01:45:59,42.805,6.029,CST-1368DR,7112,9970,15283,0.086,551
2019-12-22T01:49:01,42.805,6.029,CST-1368DR,7112,9971,15284,0.086,551
2019-12-22T01:52:02,42.805,6.029,CST-1368DR,7112,9971,15284,0.086,551
2019-12-22T01:55:04,42.805,6.029,CST-1368DR,7112,9970,15283,0.086,551
2019-12-22T01:58:05,42.805,6.029,CST-1368DR,7112,9970,15283,0.086,551
2019-12-22T02:01:07,42.805,6.029,CST-1368DR,7112,9970,15284,0.086,551
2019-12-22T02:04:09,42.805,6.029,CST-1368DR,7112,9970,15283,0.086,551
2019-12-22T02:07:10,42.805,6.029,CST-1368DR,7112,9970,15283,0.086,551
2019-12-22T02:10:12,42.805,6.029,CST-1368DR,7112,9970,15283,0.086,551
2019-12-22T02:13:14,42.805,6.029,CST-1368DR,7112,9970,15283,0.086,551
2019-12-22T02:16:15,42.805,6.029,CST-1368DR,7112,9970,15283,0.086,551
2019-12-22T02:19:17,42.805,6.029,CST-1368DR,7112,9971,15284,0.086,551
2019-12-22T02:22:19,42.805,6.029,CST-1368DR,7112,9970,15283,0.086,551
2019-12-22T02:25:20,42.805,6.029,CST-1368DR,7112,9970,15283,0.086,551
2019-12-22T02:28:22,42.805,6.029,CST-1368DR,7112,9970,15283,0.086,551
2019-12-22T02:31:24,42.805,6.029,CST-1368DR,7112,9969,15282,0.086,551
2019-12-22T02:34:25,42.805,6.029,CST-1368DR,7112,9970,15283,0.086,551
2019-12-22T02:37:27,42.805,6.029,CST-1368DR,7112,9970,15283,0.086,551
2019-12-22T02:40:29,42.805,6.029,CST-1368DR,7112,9969,15281,0.087,551
2019-12-22T02:43:31,42.805,6.029,CST-1368DR,7112,9970,15283,0.086,551
2019-12-22T02:46:33,42.805,6.029,CST-1368DR,7112,9970,15284,0.086,551
2019-12-22T02:49:35,42.805,6.029,CST-1368DR,7112,9970,15283,0.086,551
2019-12-22T02:52:36,42.805,6.029,CST-1368DR,7112,9970,15283,0.086,550
2019-12-22T02:55:38,42.805,6.029,CST-1368DR,7112,9970,15283,0.086,551
2019-12-22T02:58:40,42.805,6.029,CST-1368DR,7112,9970,15283,0.086,551
2019-12-22T03:01:42,42.805,6.029,CST-1368DR,7112,9970,15283,0.086,551
2019-12-22T03:04:43,42.805,6.029,CST-1368DR,7112,9968,15280,0.087,550
2019-12-22T03:07:45,42.805,6.029,CST-1368DR,7112,9970,15283,0.086,551
2019-12-22T03:10:46,42.805,6.029,CST-1368DR,7112,9969,15282,0.086,551
2019-12-22T03:13:48,42.805,6.029,CST-1368DR,7112,9969,15281,0.087,550
2019-12-22T03:16:50,42.805,6.029,CST-1368DR,7112,9970,15283,0.086,551
2019-12-22T03:19:51,42.805,6.029,CST-1368DR,7112,9968,15281,0.087,551
2019-12-22T03:22:53,42.805,6.029,CST-1368DR,7112,9970,15283,0.086,551
2019-12-22T03:25:55,42.805,6.029,CST-1368DR,7112,9970,15283,0.086,551
2019-12-22T03:28:56,42.805,6.029,CST-1368DR,7112,9970,15283,0.086,551
2019-12-22T03:31:58,42.805,6.029,CST-1368DR,7112,9970,15283,0.086,551
2019-12-22T03:35:00,42.805,6.029,CST-1368DR,7112,9970,15284,0.086,551
2019-12-22T03:38:02,42.805,6.029,CST-1368DR,7112,9970,15283,0.086,551
2019-12-22T03:41:03,42.805,6.029,CST-1368DR,7112,9969,15281,0.087,551
2019-12-22T03:44:05,42.805,6.029,CST-1368DR,7112,9970,15283,0.086,551
2019-12-22T03:47:07,42.805,6.029,CST-1368DR,7112,9970,15283,0.086,551
2019-12-22T03:50:08,42.805,6.029,CST-1368DR,7112,9970,15283,0.086,551
2019-12-22T03:53:10,42.805,6.029,CST-1368DR,7112,9970,15284,0.086,551
2019-12-22T03:56:12,42.805,6.029,CST-1368DR,7112,9966,15278,0.088,551
2019-12-22T03:59:14,42.805,6.029,CST-1368DR,7112,9970,15283,0.086,551
2019-12-22T04:02:15,42.805,6.029,CST-1368DR,7112,9969,15282,0.086,551
2019-12-22T04:05:17,42.805,6.029,CST-1368DR,7112,9969,15281,0.087,551
2019-12-22T04:08:18,42.805,6.029,CST-1368DR,7112,9970,15283,0.086,551
2019-12-22T04:11:20,42.805,6.029,CST-1368DR,7112,9970,15283,0.086,551
2019-12-22T04:14:22,42.805,6.029,CST-1368DR,7112,9970,15283,0.086,551
2019-12-22T04:17:23,42.805,6.029,CST-1368DR,7112,9967,15279,0.087,551
2019-12-22T04:20:25,42.805,6.029,CST-1368DR,7111,9970,15285,0.086,551
2019-12-22T04:23:27,42.805,6.029,CST-1368DR,7112,9968,15280,0.087,551
2019-12-22T04:26:29,42.805,6.029,CST-1368DR,7111,9970,15285,0.086,551
2019-12-22T04:29:30,42.805,6.029,CST-1368DR,7112,9970,15283,0.086,551
2019-12-22T04:32:32,42.805,6.029,CST-1368DR,7111,9970,15285,0.086,551
2019-12-22T04:35:34,42.805,6.029,CST-1368DR,7112,9969,15282,0.086,551
2019-12-22T04:38:35,42.805,6.029,CST-1368DR,7111,9970,15285,0.086,551
2019-12-22T04:41:37,42.805,6.029,CST-1368DR,7111,9970,15285,0.086,550
2019-12-22T04:44:39,42.805,6.029,CST-1368DR,7111,9968,15282,0.086,551
2019-12-22T04:47:40,42.805,6.029,CST-1368DR,7111,9969,15283,0.086,551
2019-12-22T04:50:42,42.805,6.029,CST-1368DR,7111,9969,15283,0.086,551
2019-12-22T04:53:44,42.805,6.029,CST-1368DR,7111,9969,15283,0.086,551
2019-12-22T04:56:45,42.805,6.029,CST-1368DR,7111,9968,15283,0.086,551
2019-12-22T04:59:47,42.805,6.029,CST-1368DR,7111,9968,15282,0.086,551
2019-12-22T05:02:49,42.805,6.029,CST-1368DR,7111,9968,15283,0.086,551
2019-12-22T05:05:50,42.805,6.029,CST-1368DR,7111,9969,15283,0.086,551
2019-12-22T05:08:52,42.805,6.029,CST-1368DR,7111,9968,15282,0.086,551
2019-12-22T05:11:54,42.805,6.029,CST-1368DR,7111,9969,15284,0.086,551
2019-12-22T05:14:55,42.805,6.029,CST-1368DR,7111,9968,15283,0.086,551
2019-12-22T05:17:57,42.805,6.029,CST-1368DR,7111,9969,15283,0.086,551
2019-12-22T05:20:58,42.805,6.029,CST-1368DR,7111,9968,15282,0.086,551
2019-12-22T05:24:00,42.805,6.029,CST-1368DR,7111,9969,15283,0.086,551
2019-12-22T05:27:02,42.805,6.029,CST-1368DR,7111,9968,15283,0.086,551
2019-12-22T05:30:03,42.805,6.029,CST-1368DR,7111,9968,15283,0.086,551
2019-12-22T05:33:05,42.805,6.029,CST-1368DR,7111,9969,15283,0.086,551
2019-12-22T05:36:07,42.805,6.029,CST-1368DR,7111,9969,15284,0.086,551
2019-12-22T05:39:08,42.805,6.029,CST-1368DR,7111,9969,15284,0.086,551
2019-12-22T05:42:10,42.805,6.029,CST-1368DR,7111,9968,15282,0.086,551
2019-12-22T05:45:12,42.805,6.029,CST-1368DR,7111,9968,15283,0.086,551
2019-12-22T05:48:13,42.805,6.029,CST-1368DR,7111,9968,15282,0.086,551
2019-12-22T05:51:15,42.805,6.029,CST-1368DR,7111,9968,15283,0.086,551
2019-12-22T05:54:17,42.805,6.029,CST-1368DR,7111,9969,15283,0.086,550
2019-12-22T05:57:18,42.805,6.029,CST-1368DR,7111,9969,15283,0.086,551
2019-12-22T06:00:20,42.805,6.029,CST-1368DR,7111,9968,15283,0.086,551
2019-12-22T06:03:21,42.805,6.029,CST-1368DR,7111,9968,15282,0.086,551
2019-12-22T06:06:23,42.805,6.029,CST-1368DR,7111,9968,15283,0.086,550
2019-12-22T06:09:25,42.805,6.029,CST-1368DR,7111,9968,15282,0.086,551
2019-12-22T06:12:26,42.805,6.029,CST-1368DR,7111,9968,15282,0.086,551
2019-12-22T06:15:28,42.805,6.029,CST-1368DR,7111,9968,15282,0.086,551
2019-12-22T06:18:30,42.805,6.029,CST-1368DR,7111,9969,15283,0.086,551
2019-12-22T06:21:31,42.805,6.029,CST-1368DR,7111,9969,15283,0.086,551
2019-12-22T06:24:33,42.805,6.029,CST-1368DR,7111,9968,15283,0.086,551
2019-12-22T06:27:35,42.805,6.029,CST-1368DR,7111,9968,15283,0.086,551
2019-12-22T06:30:36,42.805,6.029,CST-1368DR,7111,9968,15282,0.086,551
2019-12-22T06:33:38,42.805,6.029,CST-1368DR,7111,9969,15283,0.086,551
2019-12-22T06:36:40,42.805,6.029,CST-1368DR,7111,9969,15283,0.086,551
2019-12-22T06:39:41,42.805,6.029,CST-1368DR,7111,9968,15282,0.086,551
2019-12-22T06:42:43,42.805,6.029,CST-1368DR,7111,9968,15282,0.086,551
2019-12-22T06:45:45,42.805,6.029,CST-1368DR,7111,9968,15283,0.086,551
2019-12-22T06:48:46,42.805,6.029,CST-1368DR,7111,9969,15284,0.086,551
2019-12-22T06:51:48,42.805,6.029,CST-1368DR,7111,9969,15283,0.086,551
2019-12-22T06:54:49,42.805,6.029,CST-1368DR,7111,9969,15283,0.086,550
2019-12-22T06:57:51,42.805,6.029,CST-1368DR,7111,9968,15282,0.086,551
2019-12-22T07:00:53,42.805,6.029,CST-1368DR,7111,9968,15282,0.086,551
2019-12-22T07:03:54,42.805,6.029,CST-1368DR,7111,9968,15282,0.086,551
2019-12-22T07:06:56,42.805,6.029,CST-1368DR,7111,9970,15285,0.086,551
2019-12-22T07:09:58,42.805,6.029,CST-1368DR,7111,9969,15284,0.086,551
2019-12-22T07:12:59,42.805,6.029,CST-1368DR,7111,9969,15284,0.086,551
2019-12-22T07:16:01,42.805,6.029,CST-1368DR,7111,9967,15280,0.087,551
2019-12-22T07:19:03,42.805,6.029,CST-1368DR,7111,9968,15283,0.086,551
2019-12-22T07:22:04,42.805,6.029,CST-1368DR,7111,9968,15282,0.086,551
2019-12-22T07:25:06,42.805,6.029,CST-1368DR,7111,9966,15279,0.087,551
2019-12-22T07:28:08,42.805,6.029,CST-1368DR,7111,9968,15282,0.086,551
2019-12-22T07:31:09,42.805,6.029,CST-1368DR,7111,9968,15283,0.086,551
2019-12-22T07:34:11,42.805,6.029,CST-1368DR,7111,9969,15283,0.086,551
2019-12-22T07:37:13,42.805,6.029,CST-1368DR,7111,9968,15283,0.086,551
2019-12-22T07:40:14,42.805,6.029,CST-1368DR,7111,9969,15283,0.086,551
2019-12-22T07:43:16,42.805,6.029,CST-1368DR,7111,9969,15283,0.086,550
2019-12-22T07:46:18,42.805,6.029,CST-1368DR,7111,9968,15283,0.086,551
2019-12-22T07:49:19,42.805,6.029,CST-1368DR,7111,9967,15281,0.087,551
2019-12-22T07:52:21,42.805,6.029,CST-1368DR,7111,9969,15283,0.086,551
2019-12-22T07:55:23,42.805,6.029,CST-1368DR,7111,9968,15283,0.086,551
2019-12-22T07:58:25,42.805,6.029,CST-1368DR,7110,9968,15285,0.086,551
2019-12-22T08:01:26,42.805,6.029,CST-1368DR,7110,9968,15285,0.086,551
2019-12-22T08:04:28,42.805,6.029,CST-1368DR,7111,9968,15283,0.086,551
2019-12-22T08:07:30,42.805,6.029,CST-1368DR,7110,9968,15285,0.086,551
2019-12-22T08:10:31,42.805,6.029,CST-1368DR,7111,9969,15283,0.086,551
2019-12-22T08:13:33,42.805,6.029,CST-1368DR,7111,9969,15283,0.086,551
2019-12-22T08:16:35,42.805,6.029,CST-1368DR,7110,9968,15284,0.086,551
2019-12-22T08:19:36,42.805,6.029,CST-1368DR,7110,9968,15284,0.086,551
2019-12-22T08:22:38,42.805,6.029,CST-1368DR,7110,9968,15285,0.086,551
2019-12-22T08:25:39,42.805,6.029,CST-1368DR,7110,9968,15284,0.086,551
2019-12-22T08:28:41,42.805,6.029,CST-1368DR,7110,9968,15284,0.086,551
2019-12-22T08:31:43,42.805,6.029,CST-1368DR,7110,9967,15282,0.086,551
2019-12-22T08:34:44,42.805,6.029,CST-1368DR,7111,9968,15282,0.086,551
2019-12-22T08:37:46,42.805,6.029,CST-1368DR,7110,9967,15283,0.086,551
2019-12-22T08:40:48,42.805,6.029,CST-1368DR,7110,9969,15285,0.086,551
2019-12-22T08:43:49,42.805,6.029,CST-1368DR,7110,9968,15284,0.086,551
2019-12-22T08:46:51,42.805,6.029,CST-1368DR,7110,9967,15283,0.086,551
2019-12-22T08:49:53,42.805,6.029,CST-1368DR,7110,9969,15286,0.085,550
2019-12-22T08:52:55,42.805,6.029,CST-1368DR,7110,9969,15286,0.085,551
2019-12-22T08:55:56,42.805,6.029,CST-1368DR,7110,9970,15287,0.085,551
2019-12-22T08:58:58,42.805,6.029,CST-1368DR,7110,9969,15285,0.086,551
2019-12-22T09:02:00,42.805,6.029,CST-1368DR,7110,9970,15287,0.085,551
2019-12-22T09:05:01,42.805,6.029,CST-1368DR,7110,9968,15285,0.086,551
2019-12-22T09:08:03,42.805,6.029,CST-1368DR,7110,9968,15284,0.086,551
2019-12-22T09:11:04,42.805,6.029,CST-1368DR,7110,9969,15285,0.086,551
2019-12-22T09:14:06,42.805,6.029,CST-1368DR,7110,9967,15283,0.086,551
2019-12-22T09:17:08,42.805,6.029,CST-1368DR,7110,9968,15284,0.086,551
2019-12-22T09:20:09,42.805,6.029,CST-1368DR,7110,9970,15287,0.085,551
2019-12-22T09:23:11,42.805,6.029,CST-1368DR,7110,9969,15286,0.085,551
2019-12-22T09:26:13,42.805,6.029,CST-1368DR,7110,9968,15284,0.086,551
2019-12-22T09:29:14,42.805,6.029,CST-1368DR,7110,9969,15285,0.086,551
2019-12-22T09:32:16,42.805,6.029,CST-1368DR,7110,9969,15285,0.086,551
2019-12-22T09:35:18,42.805,6.029,CST-1368DR,7110,9968,15284,0.086,551
2019-12-22T09:38:20,42.805,6.029,CST-1368DR,7110,9968,15284,0.086,551
2019-12-22T09:41:21,42.805,6.029,CST-1368DR,7110,9968,15284,0.086,551
2019-12-22T09:44:23,42.805,6.029,CST-1368DR,7110,9968,15284,0.086,551
2019-12-22T09:47:24,42.805,6.029,CST-1368DR,7110,9968,15284,0.086,551
2019-12-22T09:50:26,42.805,6.029,CST-1368DR,7110,9968,15284,0.086,551
2019-12-22T09:53:28,42.805,6.029,CST-1368DR,7110,9968,15284,0.086,550
2019-12-22T09:56:29,42.805,6.029,CST-1368DR,7110,9968,15284,0.086,551
2019-12-22T09:59:31,42.805,6.029,CST-1368DR,7110,9968,15285,0.086,551
2019-12-22T10:02:33,42.805,6.029,CST-1368DR,7110,9968,15284,0.086,551
2019-12-22T10:05:34,42.805,6.029,CST-1368DR,7110,9968,15284,0.086,551
2019-12-22T10:08:36,42.805,6.029,CST-1368DR,7110,9967,15283,0.086,551
2019-12-22T10:11:38,42.805,6.029,CST-1368DR,7110,9968,15284,0.086,551
2019-12-22T10:14:39,42.805,6.029,CST-1368DR,7110,9967,15282,0.086,550
2019-12-22T10:17:41,42.805,6.029,CST-1368DR,7110,9968,15284,0.086,551
2019-12-22T10:20:43,42.805,6.029,CST-1368DR,7110,9968,15284,0.086,551
2019-12-22T10:23:44,42.805,6.029,CST-1368DR,7110,9969,15285,0.086,551
2019-12-22T10:26:46,42.805,6.029,CST-1368DR,7110,9968,15284,0.086,551
2019-12-22T10:29:48,42.805,6.029,CST-1368DR,7110,9968,15285,0.086,551
2019-12-22T10:32:49,42.805,6.029,CST-1368DR,7110,9969,15286,0.085,551
2019-12-22T10:35:51,42.805,6.029,CST-1368DR,7110,9968,15285,0.086,551
2019-12-22T10:38:53,42.805,6.029,CST-1368DR,7110,9968,15284,0.086,551
2019-12-22T10:41:55,42.805,6.029,CST-1368DR,7110,9968,15285,0.086,551
2019-12-22T10:44:56,42.805,6.029,CST-1368DR,7110,9968,15284,0.086,550
2019-12-22T10:47:58,42.805,6.029,CST-1368DR,7110,9968,15285,0.086,551
2019-12-22T10:51:00,42.805,6.029,CST-1368DR,7110,9968,15284,0.086,551
2019-12-22T10:54:01,42.805,6.029,CST-1368DR,7110,9968,15284,0.086,551
2019-12-22T10:57:03,42.805,6.029,CST-1368DR,7110,9968,15285,0.086,551
2019-12-22T11:00:04,42.805,6.029,CST-1368DR,7110,9967,15282,0.086,551
2019-12-22T11:03:06,42.805,6.029,CST-1368DR,7110,9968,15284,0.086,551
2019-12-22T11:06:08,42.805,6.029,CST-1368DR,7110,9967,15283,0.086,551
2019-12-22T11:09:10,42.805,6.029,CST-1368DR,7110,9968,15284,0.086,551
2019-12-22T11:12:11,42.805,6.029,CST-1368DR,7110,9968,15284,0.086,551
2019-12-22T11:15:13,42.805,6.029,CST-1368DR,7110,9968,15284,0.086,551
2019-12-22T11:18:15,42.805,6.029,CST-1368DR,7110,9968,15284,0.086,551
2019-12-22T11:21:16,42.805,6.029,CST-1368DR,7110,9968,15285,0.086,551
2019-12-22T11:24:18,42.805,6.029,CST-1368DR,7110,9969,15285,0.086,551
2019-12-22T11:27:20,42.805,6.029,CST-1368DR,7110,9968,15285,0.086,551
2019-12-22T11:30:21,42.805,6.029,CST-1368DR,7110,9967,15283,0.086,551
2019-12-22T11:33:23,42.805,6.029,CST-1368DR,7110,9967,15282,0.086,551
2019-12-22T11:36:25,42.805,6.029,CST-1368DR,7110,9967,15283,0.086,551
2019-12-22T11:39:26,42.805,6.029,CST-1368DR,7110,9967,15283,0.086,551
2019-12-22T11:42:28,42.805,6.029,CST-1368DR,7110,9967,15283,0.086,551
2019-12-22T11:45:30,42.805,6.029,CST-1368DR,7110,9968,15284,0.086,551
2019-12-22T11:48:31,42.805,6.029,CST-1368DR,7110,9967,15283,0.086,551
2019-12-22T11:51:33,42.805,6.029,CST-1368DR,7110,9968,15285,0.086,551
2019-12-22T11:54:35,42.805,6.029,CST-1368DR,7110,9967,15283,0.086,551
2019-12-22T11:57:36,42.805,6.029,CST-1368DR,7109,9968,15286,0.085,551
2019-12-22T12:00:38,42.805,6.029,CST-1368DR,7110,9968,15284,0.086,551
2019-12-22T12:03:40,42.805,6.029,CST-1368DR,7109,9967,15284,0.086,551
2019-12-22T12:06:41,42.805,6.029,CST-1368DR,7109,9966,15283,0.086,550
2019-12-22T12:09:43,42.805,6.029,CST-1368DR,7109,9967,15285,0.086,551
2019-12-22T12:12:45,42.805,6.029,CST-1368DR,7109,9968,15286,0.085,551
2019-12-22T12:15:46,42.805,6.029,CST-1368DR,7110,9968,15284,0.086,551
2019-12-22T12:18:48,42.805,6.029,CST-1368DR,7109,9968,15286,0.085,551
2019-12-22T12:21:50,42.805,6.029,CST-1368DR,7109,9968,15286,0.085,550
2019-12-22T12:24:51,42.805,6.029,CST-1368DR,7109,9968,15286,0.085,550
2019-12-22T12:27:53,42.805,6.029,CST-1368DR,7109,9968,15286,0.085,551
2019-12-22T12:30:55,42.805,6.029,CST-1368DR,7109,9968,15286,0.085,551
2019-12-22T12:33:56,42.805,6.029,CST-1368DR,7109,9968,15286,0.085,551
2019-12-22T12:36:58,42.805,6.029,CST-1368DR,7109,9968,15286,0.085,551
2019-12-22T12:40:00,42.805,6.029,CST-1368DR,7109,9967,15285,0.086,551
2019-12-22T12:43:01,42.805,6.029,CST-1368DR,7109,9967,15285,0.086,551
2019-12-22T12:46:03,42.805,6.029,CST-1368DR,7109,9967,15285,0.086,551
2019-12-22T12:49:04,42.805,6.029,CST-1368DR,7109,9966,15284,0.086,551
2019-12-22T12:52:06,42.805,6.029,CST-1368DR,7109,9967,15284,0.086,551
2019-12-22T12:55:08,42.805,6.029,CST-1368DR,7109,9966,15283,0.086,551
2019-12-22T12:58:09,42.805,6.029,CST-1368DR,7109,9967,15284,0.086,551
2019-12-22T13:01:11,42.805,6.029,CST-1368DR,7109,9967,15284,0.086,551
2019-12-22T13:04:13,42.805,6.029,CST-1368DR,7109,9964,15280,0.087,551
2019-12-22T13:07:14,42.805,6.029,CST-1368DR,7109,9966,15283,0.086,551
2019-12-22T13:10:16,42.805,6.029,CST-1368DR,7109,9967,15284,0.086,551
2019-12-22T13:13:18,42.805,6.029,CST-1368DR,7109,9967,15285,0.086,551
2019-12-22T13:16:19,42.805,6.029,CST-1368DR,7109,9966,15284,0.086,551
2019-12-22T13:19:21,42.805,6.029,CST-1368DR,7109,9965,15282,0.086,551
2019-12-22T13:22:23,42.805,6.029,CST-1368DR,7109,9968,15286,0.085,551
2019-12-22T13:25:24,42.805,6.029,CST-1368DR,7109,9967,15285,0.086,551
2019-12-22T13:28:26,42.805,6.029,CST-1368DR,7109,9963,15279,0.087,551
2019-12-22T13:31:28,42.805,6.029,CST-1368DR,7109,9966,15284,0.086,551
2019-12-22T13:34:29,42.805,6.029,CST-1368DR,7109,9966,15283,0.086,551
2019-12-22T13:37:31,42.805,6.029,CST-1368DR,7109,9966,15284,0.086,551
2019-12-22T13:40:33,42.805,6.029,CST-1368DR,7109,9964,15280,0.087,551
2019-12-22T13:43:35,42.805,6.029,CST-1368DR,7109,9967,15284,0.086,551
2019-12-22T13:46:36,42.805,6.029,CST-1368DR,7109,9967,15284,0.086,551
2019-12-22T13:49:38,42.805,6.029,CST-1368DR,7109,9967,15285,0.086,551
2019-12-22T13:52:40,42.805,6.029,CST-1368DR,7109,9967,15284,0.086,551
2019-12-22T13:55:41,42.805,6.029,CST-1368DR,7109,9967,15284,0.086,551
2019-12-22T13:58:43,42.805,6.029,CST-1368DR,7109,9966,15283,0.086,551
2019-12-22T14:01:44,42.805,6.029,CST-1368DR,7109,9967,15284,0.086,551
2019-12-22T14:04:46,42.805,6.029,CST-1368DR,7109,9966,15283,0.086,551
2019-12-22T14:07:48,42.805,6.029,CST-1368DR,7109,9966,15283,0.086,551
2019-12-22T14:10:49,42.805,6.029,CST-1368DR,7109,9966,15283,0.086,551
2019-12-22T14:13:51,42.805,6.029,CST-1368DR,7109,9967,15284,0.086,551
2019-12-22T14:16:53,42.805,6.029,CST-1368DR,7109,9967,15284,0.086,551
2019-12-22T14:19:54,42.805,6.029,CST-1368DR,7109,9966,15284,0.086,551
2019-12-22T14:22:56,42.805,6.029,CST-1368DR,7109,9966,15283,0.086,551
2019-12-22T14:25:58,42.805,6.029,CST-1368DR,7109,9966,15283,0.086,551
2019-12-22T14:28:59,42.805,6.029,CST-1368DR,7109,9966,15283,0.086,551
2019-12-22T14:32:01,42.805,6.029,CST-1368DR,7109,9967,15285,0.086,551
2019-12-22T14:35:03,42.805,6.029,CST-1368DR,7109,9964,15281,0.087,551
2019-12-22T14:38:05,42.805,6.029,CST-1368DR,7109,9965,15282,0.086,551
2019-12-22T14:41:06,42.805,6.029,CST-1368DR,7109,9966,15283,0.086,551
2019-12-22T14:44:08,42.805,6.029,CST-1368DR,7109,9966,15283,0.086,551
2019-12-22T14:47:10,42.805,6.029,CST-1368DR,7109,9967,15284,0.086,551
2019-12-22T14:50:11,42.805,6.029,CST-1368DR,7109,9967,15284,0.086,551
2019-12-22T14:53:13,42.805,6.029,CST-1368DR,7109,9967,15284,0.086,551
2019-12-22T14:56:15,42.805,6.029,CST-1368DR,7109,9966,15284,0.086,551
2019-12-22T14:59:16,42.805,6.029,CST-1368DR,7109,9965,15281,0.087,551
2019-12-22T15:02:18,42.805,6.029,CST-1368DR,7109,9965,15282,0.086,551
2019-12-22T15:05:20,42.805,6.029,CST-1368DR,7109,9965,15282,0.086,551
2019-12-22T15:08:21,42.805,6.029,CST-1368DR,7109,9966,15283,0.086,550
2019-12-22T15:11:23,42.805,6.029,CST-1368DR,7109,9966,15283,0.086,550
2019-12-22T15:14:24,42.805,6.029,CST-1368DR,7109,9966,15283,0.086,551
2019-12-22T15:17:26,42.805,6.029,CST-1368DR,7109,9965,15282,0.086,551
2019-12-22T15:20:28,42.805,6.029,CST-1368DR,7109,9964,15280,0.087,551
2019-12-22T15:23:29,42.805,6.029,CST-1368DR,7109,9965,15282,0.086,551
2019-12-22T15:26:31,42.805,6.029,CST-1368DR,7109,9964,15280,0.087,551
2019-12-22T15:29:33,42.805,6.029,CST-1368DR,7109,9965,15282,0.086,550
2019-12-22T15:32:34,42.805,6.029,CST-1368DR,7109,9966,15283,0.086,551
2019-12-22T15:35:36,42.805,6.029,CST-1368DR,7109,9967,15284,0.086,551
2019-12-22T15:38:38,42.805,6.029,CST-1368DR,7108,9966,15285,0.086,551
2019-12-22T15:41:39,42.805,6.029,CST-1368DR,7108,9965,15283,0.086,551
2019-12-22T15:44:41,42.805,6.029,CST-1368DR,7108,9965,15284,0.086,550
2019-12-22T15:47:43,42.805,6.029,CST-1368DR,7109,9965,15282,0.086,551
2019-12-22T15:50:44,42.805,6.029,CST-1368DR,7108,9966,15285,0.086,551
2019-12-22T15:53:46,42.805,6.029,CST-1368DR,7108,9966,15285,0.086,551
2019-12-22T15:56:48,42.805,6.029,CST-1368DR,7108,9965,15284,0.086,551
2019-12-22T15:59:49,42.805,6.029,CST-1368DR,7108,9965,15284,0.086,551
2019-12-22T16:02:51,42.805,6.029,CST-1368DR,7108,9966,15285,0.086,551
2019-12-22T16:05:53,42.805,6.029,CST-1368DR,7108,9966,15285,0.086,551
2019-12-22T16:08:54,42.805,6.029,CST-1368DR,7108,9966,15286,0.085,551
2019-12-22T16:11:56,42.805,6.029,CST-1368DR,7108,9965,15284,0.086,550
2019-12-22T16:14:57,42.805,6.029,CST-1368DR,7108,9966,15285,0.086,551
2019-12-22T16:17:59,42.805,6.029,CST-1368DR,7108,9966,15285,0.086,550
2019-12-22T16:21:01,42.805,6.029,CST-1368DR,7108,9965,15284,0.086,551
2019-12-22T16:24:02,42.805,6.029,CST-1368DR,7108,9965,15284,0.086,551
2019-12-22T16:27:04,42.805,6.029,CST-1368DR,7108,9965,15284,0.086,551
2019-12-22T16:30:06,42.805,6.029,CST-1368DR,7108,9965,15284,0.086,551
2019-12-22T16:33:08,42.805,6.029,CST-1368DR,7108,9965,15283,0.086,551
2019-12-22T16:36:09,42.805,6.029,CST-1368DR,7108,9965,15284,0.086,551
2019-12-22T16:39:11,42.805,6.029,CST-1368DR,7108,9965,15284,0.086,551
2019-12-22T16:42:13,42.805,6.029,CST-1368DR,7108,9965,15284,0.086,551
2019-12-22T16:45:14,42.805,6.029,CST-1368DR,7108,9964,15282,0.086,551
2019-12-22T16:48:16,42.805,6.029,CST-1368DR,7108,9965,15283,0.086,551
2019-12-22T16:51:18,42.805,6.029,CST-1368DR,7108,9966,15285,0.086,551